TimeEST,TemperatureF,Dew PointF,Humidity,Sea Level PressureIn,VisibilityMPH,Wind Direction,Wind SpeedMPH,Gust SpeedMPH,PrecipitationIn,Events,Conditions,WindDirDegrees,DateUTC
12:53 AM,36.0,32.0,86,30.11,10.0,Calm,Calm,-,N/A,,Clear,0,2013-02-21 05:53:00
1:53 AM,34.0,30.9,89,30.11,10.0,Calm,Calm,-,N/A,,Clear,0,2013-02-21 06:53:00
2:53 AM,37.9,30.0,73,30.13,10.0,North,4.6,-,N/A,,Clear,10,2013-02-21 07:53:00
3:53 AM,33.1,26.1,75,30.12,10.0,NNE,5.8,-,N/A,,Clear,30,2013-02-21 08:53:00
4:53 AM,35.1,23.0,61,30.15,10.0,North,5.8,-,N/A,,Clear,360,2013-02-21 09:53:00
5:53 AM,34.0,21.0,59,30.16,10.0,North,6.9,-,N/A,,Clear,10,2013-02-21 10:53:00
6:53 AM,34.0,19.0,54,30.18,10.0,North,8.1,-,N/A,,Clear,10,2013-02-21 11:53:00
7:53 AM,37.0,19.9,50,30.20,10.0,North,8.1,-,N/A,,Clear,10,2013-02-21 12:53:00
8:53 AM,42.1,21.0,43,30.21,10.0,North,9.2,-,N/A,,Clear,10,2013-02-21 13:53:00
9:53 AM,45.0,19.9,37,30.22,10.0,NNE,9.2,-,N/A,,Clear,20,2013-02-21 14:53:00
10:53 AM,48.0,21.0,34,30.20,10.0,North,6.9,-,N/A,,Clear,350,2013-02-21 15:53:00
11:53 AM,51.1,21.0,31,30.19,10.0,North,5.8,-,N/A,,Clear,350,2013-02-21 16:53:00
12:53 PM,55.4,23.0,29,30.17,10.0,WNW,6.9,-,N/A,,Clear,300,2013-02-21 17:53:00
1:53 PM,57.0,23.0,27,30.14,10.0,WNW,3.5,-,N/A,,Clear,300,2013-02-21 18:53:00
2:53 PM,59.0,21.9,24,30.12,10.0,NW,6.9,-,N/A,,Clear,320,2013-02-21 19:53:00
3:53 PM,59.0,21.0,23,30.10,10.0,NNW,4.6,-,N/A,,Clear,340,2013-02-21 20:53:00
4:53 PM,57.0,28.0,33,30.12,10.0,Variable,5.8,-,N/A,,Clear,0,2013-02-21 21:53:00
5:53 PM,50.0,35.1,57,30.14,10.0,SE,3.5,-,N/A,,Clear,130,2013-02-21 22:53:00
6:53 PM,46.9,35.1,63,30.17,10.0,SSE,3.5,-,N/A,,Clear,160,2013-02-21 23:53:00
7:53 PM,46.0,36.0,68,30.20,10.0,Calm,Calm,-,N/A,,Clear,0,2013-02-22 00:53:00
8:53 PM,42.1,37.0,82,30.20,10.0,NNE,5.8,-,N/A,,Clear,30,2013-02-22 01:53:00
9:53 PM,41.0,35.6,81,30.20,10.0,Calm,Calm,-,N/A,,Clear,0,2013-02-22 02:53:00
10:53 PM,42.1,33.1,70,30.24,10.0,NE,4.6,-,N/A,,Clear,50,2013-02-22 03:53:00
11:53 PM,43.0,33.1,68,30.24,10.0,NE,5.8,-,N/A,,Clear,50,2013-02-22 04:53:00